Location: Recife
(8.0585°S, 34.8848°W)
Time: 12:27:42
(UTC-03:00)

Courier 1B - Pass Details

Date: 20 April 2026
Orbit: 962 x 1209 km, 28.3° (Epoch: 7 May)

Event Time Altitude Azimuth Distance (km) Brightness Sun altitude
Rises 06:34:07 0° 252° (WSW) 4,015 10.1 16.6°
Reaches altitude 10° 06:37:52 10° 236° (SW) 3,091 9.6 17.5°
Maximum altitude 06:43:10 20° 192° (SSW) 2,478 9.5 18.8°
Drops below altitude 10° 06:48:34 10° 148° (SSE) 3,148 10.4 20.1°
Sets 06:52:26 0° 131° (SE) 4,114 11.2 21.0°
